WetterOnline ( https://www.wetteronline.de )

Wetter aktuell Nova Ves

Aktuelles Wetter: Liberec (401m)

6-stündlich | Neueste Meldungen
Ortszeit Temperatur Wetter
So, 05.07. 2:00 16.1° C leicht bewölkt
Sa, 04.07. 20:00 22.9° C leicht bewölkt
Sa, 04.07. 14:00 24.0° C leicht bewölkt
Sa, 04.07. 8:00 18.3° C wolkenlos
Sa, 04.07. 2:00 10.8° C -
Fr, 03.07. 20:00 19.1° C fast wolkenlos
Fr, 03.07. 14:00 19.8° C wolkig
Fr, 03.07. 8:00 15.3° C bedeckt
Ortszeit Temperatur Wetter
So, 05.07. 7:00 18.5° C bewölkt
So, 05.07. 6:00 16.8° C leicht bewölkt
So, 05.07. 5:00 15.5° C -
So, 05.07. 4:00 16.5° C bewölkt
So, 05.07. 3:00 16.2° C bedeckt
So, 05.07. 2:00 16.1° C leicht bewölkt
Ortszeit Relative Feuchte Sichtweite
So, 05.07. 2:00 71% 35 km
Sa, 04.07. 20:00 40% 45 km
Sa, 04.07. 14:00 40% 50 km
Sa, 04.07. 8:00 63% 40 km
Sa, 04.07. 2:00 94% 23 km
Fr, 03.07. 20:00 59% 45 km
Fr, 03.07. 14:00 60% 40 km
Fr, 03.07. 8:00 95% 10 km
Ortszeit Relative Feuchte Sichtweite
So, 05.07. 7:00 62% 35 km
So, 05.07. 6:00 70% 35 km
So, 05.07. 5:00 73% 35 km
So, 05.07. 4:00 69% 35 km
So, 05.07. 3:00 71% 35 km
So, 05.07. 2:00 71% 35 km
Ortszeit Niederschlagsmenge Niederschlagsart
So, 05.07. 2:00 0.0 l/m2 in 6 Std. -
Sa, 04.07. 20:00 0.0 l/m2 in 12 Std. -
Sa, 04.07. 14:00 0.0 l/m2 in 6 Std. -
Sa, 04.07. 8:00 0.0 l/m2 in 12 Std. -
Sa, 04.07. 2:00 0.0 l/m2 in 6 Std. -
Fr, 03.07. 20:00 0.1 l/m2 in 12 Std. -
Fr, 03.07. 14:00 0.1 l/m2 in 6 Std. Schauer
Fr, 03.07. 8:00 7 l/m2 in 12 Std. -
Ortszeit Niederschlagsmenge Niederschlagsart
So, 05.07. 7:00 0.0 l/m2 in 1 Std. -
So, 05.07. 6:00 0.0 l/m2 in 1 Std. -
So, 05.07. 5:00 0.0 l/m2 in 1 Std. -
So, 05.07. 4:00 0.0 l/m2 in 1 Std. -
So, 05.07. 3:00 0.0 l/m2 in 1 Std. -
So, 05.07. 2:00 0.0 l/m2 in 1 Std. -
Ortszeit Stärke Spitze Richtung
km/h Bft. km/h Grad Sektor
So, 05.07. 2:00 7 2 - 100° O
Sa, 04.07. 20:00 11 2 43 220° SW
Sa, 04.07. 14:00 11 2 - 190° S
Sa, 04.07. 8:00 7 2 - 110° O
Sa, 04.07. 2:00 4 1 - 140° SO
Fr, 03.07. 20:00 7 2 - 300° NW
Fr, 03.07. 14:00 7 2 - 300° NW
Fr, 03.07. 8:00 11 2 - 300° NW
Ortszeit Stärke Spitze Richtung
km/h Bft. km/h Grad Sektor
So, 05.07. 7:00 7 2 - 120° SO
So, 05.07. 6:00 4 1 - 130° SO
So, 05.07. 5:00 4 1 - 120° SO
So, 05.07. 4:00 7 2 - 100° O
So, 05.07. 3:00 7 2 - 90° O
So, 05.07. 2:00 7 2 - 100° O
Ortszeit Untergrenze Bedeckung Gattung
total tief tief mittel hoch
So, 05.07. 2:00 2400 m - 4/8 - - -
Sa, 04.07. 20:00 3600 m 2/8 1/8 - Ac Ci
Sa, 04.07. 14:00 1500 m 3/8 2/8 Cu Ac Ci
Sa, 04.07. 8:00 - 0/8 0/8 - - -
Sa, 04.07. 2:00 - - - - - -
Fr, 03.07. 20:00 1470 m 1/8 1/8 Cu Ac -
Fr, 03.07. 14:00 960 m 5/8 4/8 Cu Ac -
Fr, 03.07. 8:00 240 m 8/8 8/8 Sc - -
Ortszeit Bedeckungsgrad in Achtel und Wolkenuntergrenze
So, 05.07. 7:00 7(3000m)
So, 05.07. 6:00 3(3900m)
So, 05.07. 5:00 -
So, 05.07. 4:00 1(1500m) 7(2100m)
So, 05.07. 3:00 8(1800m)
So, 05.07. 2:00 4(2400m) 7(3000m)
Ortszeit Luftdruck NN (hPa) Tendenz (hPa in 3 Std.)
So, 05.07. 2:00 1016 + 0,1
Sa, 04.07. 20:00 1014 - 0,5
Sa, 04.07. 14:00 1016 - 1,2
Sa, 04.07. 8:00 1018 - 0,1
Sa, 04.07. 2:00 1020 + 0,3
Fr, 03.07. 20:00 1017 + 0,3
Fr, 03.07. 14:00 1016 + 0,4
Fr, 03.07. 8:00 1015 + 1,7
Ortszeit Luftdruck NN (hPa) Tendenz (hPa in 3 Std.)
So, 05.07. 7:00 1015 + 0,3
So, 05.07. 6:00 1015 - 0,3
So, 05.07. 5:00 1015 - 0,6
So, 05.07. 4:00 1015 - 0,7
So, 05.07. 3:00 1015 - 0,4
So, 05.07. 2:00 1016 + 0,1
Ortszeit Schneehöhe (cm)
So, 05.07. 2:00 -
Sa, 04.07. 20:00 -
Sa, 04.07. 14:00 -
Sa, 04.07. 8:00 -
Sa, 04.07. 2:00 -
Fr, 03.07. 20:00 -
Fr, 03.07. 14:00 -
Fr, 03.07. 8:00 -
Ortszeit Schneehöhe (cm)
So, 05.07. 7:00 -
So, 05.07. 6:00 -
So, 05.07. 5:00 -
So, 05.07. 4:00 -
So, 05.07. 3:00 -
So, 05.07. 2:00 -
Link zu dieser Seite / Seite empfehlen

Das Wetter in ...